Weather History for Placerville, CA

Change the Weather History Date:

Monday, June 9, 2014

  Actual Average Record
Temperature  
Mean Temperature 84 °F -  
Max Temperature 95 °F 81 °F 95 °F (2014)
Min Temperature 73 °F 52 °F 50 °F (2012)
Cooling Degree Days 19    
Growing Degree Days 34 (Base 50)    
Moisture  
Dew Point 39 °F    
Average Humidity 22    
Maximum Humidity 36    
Minimum Humidity 9    
Precipitation  
Precipitation 0.00 in - - ()
Sea Level Pressure  
Sea Level Pressure 29.86 in    
Wind  
Wind Speed 8 mph (East)    
Max Wind Speed 14 mph    
Max Gust Speed 17 mph    
Visibility 10 miles    
Events      
Averages and records for this station are not official NWS values.
T = Trace of Precipitation, MM = Missing Value Source: NWS Daily Summary

Daily Weather History Graph

Daily Weather History Graph

Search for Another Location

Airport:

Trip Planner

Search our weather history database for the weather conditions in past years. The results will help you decide how hot, cold, wet, or windy it might be!

Date:

Astronomy

Jun. 09, 2014 Rise Set
Actual Time 5:37 AM PDT 8:26 PM PDT
Civil Twilight 5:06 AM PDT 8:58 PM PDT
Nautical Twilight 4:26 AM PDT 9:38 PM PDT
Astronomical Twilight 3:41 AM PDT 10:24 PM PDT
Moon 4:55 PM PDT (6/9) 3:06 AM PDT (6/9)
Length of Visible Light 15h 52m
Length of Day
14h 49m
Waxing Gibbous, 86% of the Moon is Illuminated
Jun 9
Waxing Gibbous
Jun 12
Full
Jun 19
Last Quarter
Jun 27
New
Jul 5
First Quarter

Hourly Weather History & Observations

Time (PDT) Temp. Dew Point Humidity Pressure Visibility Wind Dir Wind Speed Gust Speed Precip Events Conditions
12:15 AM 77.0 °F 48.2 °F 36% 29.88 in 10.0 mi ENE 12.7 mph - N/A   Partly Cloudy
12:35 AM 77.0 °F 48.2 °F 36% 29.88 in 10.0 mi East 9.2 mph - N/A   Partly Cloudy
12:55 AM 77.0 °F 46.4 °F 34% 29.88 in 10.0 mi ENE 11.5 mph - N/A   Partly Cloudy
1:15 AM 77.0 °F 46.4 °F 34% 29.88 in 10.0 mi ENE 13.8 mph - N/A   Partly Cloudy
1:35 AM 77.0 °F 46.4 °F 34% 29.88 in 10.0 mi ENE 11.5 mph - N/A   Partly Cloudy
1:55 AM 77.0 °F 46.4 °F 34% 29.87 in 10.0 mi ENE 11.5 mph - N/A   Partly Cloudy
2:15 AM 77.0 °F 44.6 °F 32% 29.87 in 10.0 mi East 11.5 mph - N/A   Scattered Clouds
2:35 AM 77.0 °F 42.8 °F 29% 29.87 in 10.0 mi ENE 11.5 mph - N/A   Scattered Clouds
2:55 AM 75.2 °F 41.0 °F 29% 29.87 in 10.0 mi ENE 11.5 mph - N/A   Scattered Clouds
3:15 AM 75.2 °F 39.2 °F 27% 29.87 in 10.0 mi East 8.1 mph - N/A   Scattered Clouds
3:35 AM 75.2 °F 39.2 °F 27% 29.86 in 10.0 mi East 9.2 mph - N/A   Mostly Cloudy
3:55 AM 73.4 °F 39.2 °F 29% 29.86 in 10.0 mi East 8.1 mph - N/A   Mostly Cloudy
4:15 AM 75.2 °F 37.4 °F 25% 29.86 in 10.0 mi ENE 5.8 mph - N/A   Mostly Cloudy
4:35 AM 75.2 °F 39.2 °F 27% 29.86 in 10.0 mi East 8.1 mph - N/A   Mostly Cloudy
4:55 AM 75.2 °F 39.2 °F 27% 29.86 in 10.0 mi East 8.1 mph - N/A   Mostly Cloudy
5:15 AM 75.2 °F 41.0 °F 29% 29.86 in 10.0 mi East 8.1 mph - N/A   Mostly Cloudy
5:35 AM 75.2 °F 41.0 °F 29% 29.86 in 10.0 mi East 6.9 mph - N/A   Partly Cloudy
5:55 AM 73.4 °F 41.0 °F 31% 29.86 in 10.0 mi East 9.2 mph - N/A   Clear
6:15 AM 75.2 °F 41.0 °F 29% 29.87 in 10.0 mi East 8.1 mph - N/A   Clear
6:35 AM 75.2 °F 39.2 °F 27% 29.87 in 10.0 mi East 8.1 mph - N/A   Clear
6:55 AM 73.4 °F 41.0 °F 31% 29.87 in 10.0 mi East 6.9 mph - N/A   Clear
7:15 AM 73.4 °F 42.8 °F 33% 29.88 in 10.0 mi East 5.8 mph - N/A   Clear
7:35 AM 75.2 °F 44.6 °F 34% 29.88 in 10.0 mi East 6.9 mph - N/A   Clear
7:55 AM 77.0 °F 44.6 °F 32% 29.88 in 10.0 mi East 6.9 mph - N/A   Clear
8:15 AM 80.6 °F 46.4 °F 30% 29.88 in 10.0 mi East 5.8 mph - N/A   Clear
8:35 AM 80.6 °F 48.2 °F 32% 29.89 in 10.0 mi ESE 5.8 mph - N/A   Clear
8:55 AM 82.4 °F 48.2 °F 30% 29.89 in 10.0 mi ESE 6.9 mph - N/A   Clear
9:35 AM 84.2 °F 50.0 °F 30% 29.89 in 10.0 mi Calm Calm - N/A   Clear
9:55 AM 86.0 °F 51.8 °F 31% 29.89 in 10.0 mi South 4.6 mph - N/A   Clear
10:15 AM 86.0 °F 48.2 °F 27% 29.89 in 10.0 mi Calm Calm - N/A   Clear
10:35 AM 89.6 °F 41.0 °F 18% 29.89 in 10.0 mi NNW 3.5 mph - N/A   Clear
10:55 AM 89.6 °F 37.4 °F 16% 29.89 in 10.0 mi NW 4.6 mph - N/A   Clear
11:15 AM 89.6 °F 37.4 °F 16% 29.89 in 10.0 mi Calm Calm - N/A   Clear
11:35 AM 89.6 °F 41.0 °F 18% 29.89 in 10.0 mi Calm Calm - N/A   Clear
1:15 PM 93.2 °F 39.2 °F 15% 29.88 in 10.0 mi Calm Calm - N/A   Clear
1:35 PM 93.2 °F 37.4 °F 14% 29.87 in 10.0 mi SSW 6.9 mph - N/A   Clear
1:55 PM 93.2 °F 39.2 °F 15% 29.87 in 10.0 mi SW 8.1 mph - N/A   Clear
2:15 PM 95.0 °F 39.2 °F 14% 29.87 in 10.0 mi SW 8.1 mph - N/A   Clear
2:35 PM 93.2 °F 35.6 °F 13% 29.86 in 10.0 mi WSW 4.6 mph - N/A   Clear
2:55 PM 93.2 °F 35.6 °F 13% 29.86 in 10.0 mi SW 9.2 mph 17.3 mph N/A   Clear
3:15 PM 93.2 °F 35.6 °F 13% 29.86 in 10.0 mi WSW 5.8 mph - N/A   Clear
3:35 PM 93.2 °F 33.8 °F 12% 29.85 in 10.0 mi West 5.8 mph - N/A   Clear
3:55 PM 93.2 °F 33.8 °F 12% 29.84 in 10.0 mi SW 3.5 mph - N/A   Clear
4:15 PM 93.2 °F 35.6 °F 13% 29.84 in 10.0 mi SW 5.8 mph - N/A   Clear
4:35 PM 93.2 °F 35.6 °F 13% 29.84 in 10.0 mi West 6.9 mph - N/A   Clear
4:55 PM 93.2 °F 37.4 °F 14% 29.83 in 10.0 mi West 6.9 mph - N/A   Clear
5:15 PM 93.2 °F 35.6 °F 13% 29.83 in 10.0 mi West 5.8 mph - N/A   Clear
5:35 PM 91.4 °F 35.6 °F 14% 29.83 in 10.0 mi WNW 4.6 mph - N/A   Clear
5:55 PM 93.2 °F 35.6 °F 13% 29.82 in 10.0 mi WNW 5.8 mph - N/A   Clear
6:15 PM 91.4 °F 35.6 °F 14% 29.82 in 10.0 mi WNW 4.6 mph - N/A   Clear
6:35 PM 91.4 °F 33.8 °F 13% 29.82 in 10.0 mi WNW 6.9 mph - N/A   Clear
6:55 PM 91.4 °F 32.0 °F 12% 29.82 in 10.0 mi WNW 4.6 mph - N/A   Clear
7:15 PM 89.6 °F 32.0 °F 13% 29.82 in 10.0 mi WNW 5.8 mph - N/A   Clear
7:35 PM 89.6 °F 28.4 °F 11% 29.82 in 10.0 mi NW 3.5 mph - N/A   Clear
7:55 PM 89.6 °F 26.6 °F 10% 29.82 in 10.0 mi NW 3.5 mph - N/A   Clear
8:15 PM 87.8 °F 26.6 °F 11% 29.82 in 10.0 mi WNW 3.5 mph - N/A   Clear
8:35 PM 87.8 °F 23.0 °F 9% 29.82 in 10.0 mi WNW 3.5 mph - N/A   Clear
8:55 PM 84.2 °F 37.4 °F 19% 29.82 in 10.0 mi Calm Calm - N/A   Clear
9:15 PM 84.2 °F 32.0 °F 15% 29.82 in 10.0 mi Calm Calm - N/A   Clear
9:35 PM 80.6 °F 35.6 °F 20% 29.83 in 10.0 mi ESE 5.8 mph - N/A   Clear
9:55 PM 82.4 °F 30.2 °F 15% 29.83 in 10.0 mi ESE 4.6 mph - N/A   Clear
10:15 PM 82.4 °F 32.0 °F 16% 29.84 in 10.0 mi ESE 4.6 mph - N/A   Clear
10:35 PM 80.6 °F 32.0 °F 17% 29.84 in 10.0 mi East 6.9 mph - N/A   Clear
10:55 PM 77.0 °F 33.8 °F 21% 29.84 in 10.0 mi East 8.1 mph - N/A   Clear
11:15 PM 80.6 °F 30.2 °F 16% 29.83 in 10.0 mi East 8.1 mph - N/A   Clear
11:35 PM 78.8 °F 32.0 °F 18% 29.83 in 10.0 mi East 8.1 mph - N/A   Clear
11:55 PM 77.0 °F 35.6 °F 22% 29.83 in 10.0 mi East 10.4 mph - N/A   Clear